Weather History for Piney Island, NC

Change the Weather History Date:

Wednesday, May 29, 2013

  Actual Average (KMRH) Record (KMRH)
Temperature  
Mean Temperature 75 °F -  
Max Temperature 84 °F 80 °F 92 °F (1991)
Min Temperature 68 °F 64 °F 45 °F (1961)
Cooling Degree Days 10    
Growing Degree Days 25 (Base 50)    
Moisture  
Dew Point 65 °F    
Average Humidity 72    
Maximum Humidity 93    
Minimum Humidity 51    
Precipitation  
Precipitation 0.00 in - - ()
Sea Level Pressure  
Sea Level Pressure 30.26 in    
Wind  
Wind Speed 6 mph (SSW)    
Max Wind Speed 15 mph    
Max Gust Speed 21 mph    
Visibility 10 miles    
Events      
Averages and records for this station are not official NWS values.
T = Trace of Precipitation, MM = Missing Value Source: NWS Daily Summary

Daily Weather History Graph

Daily Weather History Graph

Search for Another Location

Airport:

Trip Planner

Search our weather history database for the weather conditions in past years. The results will help you decide how hot, cold, wet, or windy it might be!

Date:

Astronomy

May. 29, 2013 Rise Set
Actual Time 5:54 AM EDT 8:12 PM EDT
Civil Twilight 5:24 AM EDT 8:41 PM EDT
Nautical Twilight 4:49 AM EDT 9:17 PM EDT
Astronomical Twilight 4:10 AM EDT 9:56 PM EDT
Moon No Moon Rise 10:44 AM EDT (5/29)
Length of Visible Light 15h 17m
Length of Day
14h 18m
Waning Gibbous, 73% of the Moon is Illuminated
May 29
Waning Gibbous
May 31
Last Quarter
Jun 8
New
Jun 16
First Quarter
Jun 23
Full

Hourly Weather History & Observations

Time (EDT) Temp. Heat Index Dew Point Humidity Pressure Visibility Wind Dir Wind Speed Gust Speed Precip Events Conditions
12:56 AM 69.1 °F - 64.9 °F 87% 30.24 in 10.0 mi South 3.5 mph - N/A   Clear
1:56 AM 69.1 °F - 64.9 °F 87% 30.23 in 10.0 mi South 4.6 mph - N/A   Clear
2:56 AM 68.0 °F - 66.0 °F 93% 30.23 in 10.0 mi South 3.5 mph - 0.00 in   Clear
3:56 AM 69.1 °F - 66.9 °F 93% 30.23 in 10.0 mi South 4.6 mph - N/A   Clear
4:56 AM 69.1 °F - 66.0 °F 90% 30.24 in 10.0 mi South 3.5 mph - 0.00 in   Clear
5:56 AM 69.1 °F - 66.9 °F 93% 30.25 in 10.0 mi SSW 4.6 mph - N/A   Clear
6:56 AM 70.0 °F - 68.0 °F 93% 30.27 in 7.0 mi Calm Calm - N/A   Clear
8:56 AM 77.0 °F - 68.0 °F 74% 30.29 in 10.0 mi West 5.8 mph - N/A   Clear
9:56 AM 78.1 °F - 66.0 °F 66% 30.29 in 10.0 mi West 10.4 mph - N/A   Partly Cloudy
10:56 AM 80.1 °F 81.9 °F 64.9 °F 60% 30.29 in 10.0 mi WSW 9.2 mph - N/A   Mostly Cloudy
11:56 AM 82.0 °F 83.4 °F 64.0 °F 54% 30.29 in 10.0 mi SW 11.5 mph - N/A   Overcast
12:56 PM 82.9 °F 84.0 °F 63.0 °F 51% 30.29 in 10.0 mi South 10.4 mph 19.6 mph N/A   Scattered Clouds
1:56 PM 82.9 °F 84.0 °F 63.0 °F 51% 30.27 in 10.0 mi SSW 12.7 mph - N/A   Mostly Cloudy
2:56 PM 82.9 °F 84.4 °F 64.0 °F 53% 30.26 in 9.0 mi South 15.0 mph 20.7 mph N/A   Scattered Clouds
3:56 PM 82.0 °F 83.4 °F 64.0 °F 54% 30.25 in 10.0 mi South 11.5 mph - N/A   Scattered Clouds
4:56 PM 82.0 °F 84.5 °F 66.9 °F 60% 30.25 in 10.0 mi SSW 11.5 mph 19.6 mph N/A   Mostly Cloudy
5:56 PM 81.0 °F 82.7 °F 64.9 °F 58% 30.25 in 10.0 mi SSW 11.5 mph - N/A   Clear
6:56 PM 79.0 °F - 64.9 °F 62% 30.25 in 10.0 mi SSW 11.5 mph - N/A   Clear
7:56 PM 77.0 °F - 64.9 °F 66% 30.25 in 10.0 mi South 9.2 mph - N/A   Clear
8:56 PM 73.0 °F - 64.0 °F 73% 30.25 in 10.0 mi South 5.8 mph - N/A   Clear
9:56 PM 72.0 °F - 64.0 °F 76% 30.26 in 10.0 mi South 4.6 mph - N/A   Clear
10:56 PM 71.1 °F - 64.9 °F 81% 30.26 in 10.0 mi South 5.8 mph - N/A   Clear
11:56 PM 71.1 °F - 66.0 °F 84% 30.27 in 10.0 mi Calm Calm - N/A   Clear